GW3608 Weather Reports


time (UTC)temp
C
wind
direction
speed
KPH
gust
KPH
rain 1hr
cm
rain 24hr
cm
rain mn
cm
humidity
%
barometer
mb
20260510133020 10 79 1.6 8.0 0.00 0.56 0.18 90 1013.0
20260510131520 10 38 1.6 8.0 0.00 0.58 0.18 93 1013.0
20260510130022 10 303 0.0 3.2 0.00 0.64 0.18 94 1013.0
20260510124506 10 163 0.0 3.2 0.00 0.69 0.18 95 1012.8
20260510123013 10 240 0.0 1.6 0.00 0.74 0.18 95 1012.6
20260510121516 10 246 0.0 1.6 0.00 0.79 0.18 95 1012.3
20260510120034 9 122 0.0 0.0 0.00 0.81 0.18 95 1012.2
20260510114522 10 122 0.0 0.0 0.00 0.86 0.18 96 1011.9
20260510113009 9 122 0.0 0.0 0.00 0.89 0.18 95 1011.9
20260510111512 9 122 0.0 0.0 0.00 0.91 0.18 96 1011.6
20260510110024 8 122 0.0 0.0 0.00 0.94 0.18 95 1011.3
20260510104523 8 122 0.0 0.0 0.00 0.99 0.18 95 1010.9
20260510103023 8 122 0.0 0.0 0.00 1.07 0.18 95 1010.8
20260510101511 7 122 0.0 0.0 0.00 1.09 0.18 95 1010.4
20260510100014 8 122 0.0 0.0 0.00 1.12 0.18 95 1010.3
20260510094529 8 122 0.0 0.0 0.00 1.12 0.18 95 1010.3
20260510093024 8 122 0.0 0.0 0.00 1.14 0.18 95 1010.2
20260510091529 8 122 0.0 0.0 0.00 1.14 0.18 95 1010.0
20260510090012 7 122 0.0 0.0 0.00 1.14 0.18 95 1009.9
20260510084514 7 122 0.0 0.0 0.00 1.17 0.18 94 1009.6
20260510083020 7 122 0.0 0.0 0.00 1.17 0.18 94 1009.6
20260510081527 7 122 0.0 0.0 0.00 1.17 0.18 94 1009.6
20260510080029 7 122 0.0 0.0 0.00 1.17 0.18 93 1009.5
20260510074517 8 122 0.0 0.0 0.00 1.17 0.18 93 1009.4
20260510073021 8 122 0.0 1.6 0.00 1.17 0.18 94 1009.2
20260510071525 8 126 0.0 1.6 0.00 1.17 0.18 93 1009.3
20260510070028 8 154 0.0 3.2 0.00 1.17 0.18 94 1009.3
20260510064530 8 242 0.0 0.0 0.00 1.19 0.18 93 1009.2
20260510063019 8 279 0.0 1.6 0.03 1.19 0.18 93 1009.4
20260510061529 9 115 0.0 3.2 0.03 1.22 0.18 93 1009.5
20260510060042 9 240 0.0 6.4 0.05 1.22 0.18 93 1009.5
20260510054528 8 139 0.0 0.0 0.13 1.22 0.18 93 1009.8
20260510053027 9 139 0.0 3.2 0.15 1.19 0.15 92 1010.3
20260510051521 9 201 0.0 0.0 0.15 1.19 0.15 92 1010.6
20260510050005 9 248 0.0 1.6 0.13 1.17 0.13 91 1010.9
20260510044506 10 265 0.0 4.8 0.05 1.09 0.05 90 1010.9
20260510043010 10 263 0.0 4.8 0.00 1.04 0.00 89 1011.2
20260510041516 10 268 0.0 11.3 0.00 1.04 0.00 90 1010.9
20260510040020 10 292 1.6 16.1 0.00 1.04 0.00 91 1010.4
20260510034504 10 198 0.0 1.6 0.00 1.04 1.04 92 1009.5
20260510033009 10 154 0.0 6.4 0.00 1.04 1.04 92 1009.3
20260510031513 10 119 0.0 1.6 0.00 1.04 1.04 91 1009.4
20260510030020 10 149 0.0 1.6 0.00 1.04 1.04 90 1009.5
20260510024520 10 227 0.0 1.6 0.00 1.04 1.04 90 1009.2
20260510023041 10 146 0.0 1.6 0.00 1.04 1.04 90 1009.0
20260510021510 10 151 0.0 3.2 0.00 1.04 1.04 90 1008.9
20260510020016 10 130 0.0 3.2 0.00 1.04 1.04 91 1009.0
20260510014522 10 227 0.0 6.4 0.00 1.04 1.04 91 1008.9
20260510013022 10 173 0.0 1.6 0.00 1.04 1.04 90 1008.8
20260510011526 10 178 0.0 3.2 0.00 1.04 1.04 90 1008.7
20260510010029 10 135 0.0 4.8 0.00 1.04 1.04 90 1008.5
20260510004527 10 192 0.0 3.2 0.00 1.04 1.04 90 1008.3
20260510003024 11 167 0.0 3.2 0.00 1.04 1.04 89 1007.9
20260510001526 11 145 0.0 3.2 0.00 1.04 1.04 89 1008.1
20260510000026 11 144 0.0 9.7 0.00 1.04 1.04 89 1008.0
20260509234527 11 235 0.0 8.0 0.00 1.04 1.04 89 1007.8
20260509233029 11 170 0.0 0.0 0.00 1.04 1.04 89 1007.7
20260509231522 11 164 0.0 3.2 0.00 1.04 1.04 89 1007.5
20260509230024 11 173 0.0 3.2 0.00 1.04 1.04 89 1007.6
20260509224510 11 181 0.0 9.7 0.00 1.04 1.04 90 1007.9
20260509223020 11 266 0.0 6.4 0.00 1.04 1.04 90 1007.9
20260509221524 11 184 1.6 8.0 0.00 1.04 1.04 90 1007.6
20260509220025 11 167 0.0 9.7 0.00 1.04 1.04 91 1007.7
20260509214510 11 139 0.0 4.8 0.00 1.04 1.04 92 1007.8
20260509213016 11 306 0.0 9.7 0.00 1.04 1.04 93 1007.9
20260509211545 11 213 0.0 9.7 0.00 1.04 1.04 94 1008.0
20260509210022 10 251 0.0 8.0 0.00 1.04 1.04 94 1008.2
20260509204526 10 167 0.0 4.8 0.03 1.04 1.04 94 1008.3
20260509203031 10 228 0.0 3.2 0.03 1.04 1.04 95 1008.4
20260509201521 10 111 0.0 3.2 0.03 1.04 1.04 94 1008.5
20260509200025 10 154 0.0 3.2 0.05 1.04 1.04 94 1008.6
20260509194524 10 139 0.0 3.2 0.08 1.02 1.02 94 1008.8
20260509193025 10 169 0.0 4.8 0.08 1.02 1.02 94 1008.9
20260509191519 10 131 0.0 4.8 0.10 1.02 1.02 94 1009.0
20260509190022 10 137 0.0 3.2 0.10 0.99 0.99 93 1009.1
20260509184525 10 192 0.0 4.8 0.05 0.94 0.94 93 1009.1
20260509183024 10 157 0.0 4.8 0.05 0.94 0.94 93 1009.0
20260509181529 10 140 0.0 6.4 0.03 0.91 0.91 93 1009.1
20260509180018 10 134 0.0 8.0 0.00 0.89 0.89 93 1009.0
20260509174521 10 161 0.0 1.6 0.00 0.89 0.89 93 1009.0
20260509173025 10 253 0.0 4.8 0.00 0.89 0.89 93 1009.0
20260509171526 9 146 0.0 4.8 0.03 0.89 0.89 93 1009.0
20260509170031 9 178 0.0 3.2 0.03 0.89 0.89 93 1009.0
20260509164517 9 129 0.0 3.2 0.03 0.89 0.89 93 1009.1
20260509163029 10 261 0.0 0.0 0.03 0.89 0.89 93 1009.1
20260509161526 10 184 0.0 1.6 0.03 0.86 0.86 93 1009.2
20260509160028 9 167 0.0 3.2 0.03 0.86 0.86 93 1009.4
20260509154526 10 152 0.0 1.6 0.05 0.86 0.86 94 1009.5
20260509153024 9 128 0.0 6.4 0.10 0.86 0.86 94 1009.6
20260509151523 9 153 0.0 6.4 0.10 0.84 0.84 94 1009.9
20260509150027 9 155 0.0 4.8 0.13 0.84 0.84 94 1010.0
20260509144528 8 127 0.0 4.8 0.13 0.81 0.81 94 1010.2
20260509143030 8 140 0.0 6.4 0.10 0.76 0.76 94 1010.2
20260509141526 8 201 0.0 4.8 0.10 0.74 0.74 94 1010.2
20260509140024 8 208 0.0 1.6 0.13 0.71 0.71 94 1010.2
20260509134512 8 174 0.0 3.2 0.15 0.69 0.69 94 1010.2